Date_Time,Julian_Date,Latitude,Longitude,Instrument_Depth,U,V,Speed,Direction
(yyyy-mm-dd hh:mn:ss UTC),(JD),(+ deg. North),(+ deg. East),(m),(cm/s),(cm/s),(cm/s),(deg True)
1982-08-20 18:00:00 UTC,2445202.250000,28.7317,-95.2428,0215,-2.35,-14.82,15.0000,189.0000
1982-08-20 18:30:00 UTC,2445202.270833,28.7317,-95.2428,0215,-2.09,-14.85,15.0000,188.0000
1982-08-20 19:00:00 UTC,2445202.291667,28.7317,-95.2428,0215,-2.35,-14.82,15.0000,189.0000
1982-08-20 19:30:00 UTC,2445202.312500,28.7317,-95.2428,0215,-2.19,-13.83,14.0000,189.0000
1982-08-20 20:00:00 UTC,2445202.333333,28.7317,-95.2428,0215,-2.19,-13.83,14.0000,189.0000
1982-08-20 20:30:00 UTC,2445202.354167,28.7317,-95.2428,0215,-2.60,-14.77,15.0000,190.0000
1982-08-20 21:00:00 UTC,2445202.375000,28.7317,-95.2428,0215,-2.86,-14.72,15.0000,191.0000
1982-08-20 21:30:00 UTC,2445202.395833,28.7317,-95.2428,0215,-3.37,-14.62,15.0000,193.0000
1982-08-20 22:00:00 UTC,2445202.416667,28.7317,-95.2428,0215,-4.39,-14.34,15.0000,197.0000
1982-08-20 22:30:00 UTC,2445202.437500,28.7317,-95.2428,0215,-4.33,-13.31,14.0000,198.0000
1982-08-20 23:00:00 UTC,2445202.458333,28.7317,-95.2428,0215,-4.64,-14.27,15.0000,198.0000
1982-08-20 23:30:00 UTC,2445202.479167,28.7317,-95.2428,0215,-5.62,-13.91,15.0000,202.0000
1982-08-21 00:00:00 UTC,2445202.500000,28.7317,-95.2428,0215,-7.01,-14.38,16.0000,206.0000
1982-08-21 00:30:00 UTC,2445202.520833,28.7317,-95.2428,0215,-7.50,-12.99,15.0000,210.0000
1982-08-21 01:00:00 UTC,2445202.541667,28.7317,-95.2428,0215,-8.39,-12.44,15.0000,214.0000
1982-08-21 01:30:00 UTC,2445202.562500,28.7317,-95.2428,0215,-9.18,-13.11,16.0000,215.0000
1982-08-21 02:00:00 UTC,2445202.583333,28.7317,-95.2428,0215,-7.27,-13.12,15.0000,209.0000
1982-08-21 02:30:00 UTC,2445202.604167,28.7317,-95.2428,0215,-4.39,-14.34,15.0000,197.0000
1982-08-21 03:00:00 UTC,2445202.625000,28.7317,-95.2428,0215,-1.95,-13.86,14.0000,188.0000
1982-08-21 03:30:00 UTC,2445202.645833,28.7317,-95.2428,0215,-1.13,-12.95,13.0000,185.0000
1982-08-21 04:00:00 UTC,2445202.666667,28.7317,-95.2428,0215,-0.91,-12.97,13.0000,184.0000
1982-08-21 04:30:00 UTC,2445202.687500,28.7317,-95.2428,0215,-0.68,-12.98,13.0000,183.0000
1982-08-21 05:00:00 UTC,2445202.708333,28.7317,-95.2428,0215,-0.91,-12.97,13.0000,184.0000
1982-08-21 05:30:00 UTC,2445202.729167,28.7317,-95.2428,0215,-1.22,-13.95,14.0000,185.0000
1982-08-21 06:00:00 UTC,2445202.750000,28.7317,-95.2428,0215,-1.46,-13.92,14.0000,186.0000
1982-08-21 06:30:00 UTC,2445202.770833,28.7317,-95.2428,0215,-1.58,-12.90,13.0000,187.0000
1982-08-21 07:00:00 UTC,2445202.791667,28.7317,-95.2428,0215,-1.81,-12.87,13.0000,188.0000
1982-08-21 07:30:00 UTC,2445202.812500,28.7317,-95.2428,0215,-1.95,-13.86,14.0000,188.0000
1982-08-21 08:00:00 UTC,2445202.833333,28.7317,-95.2428,0215,-2.35,-14.82,15.0000,189.0000
1982-08-21 08:30:00 UTC,2445202.854167,28.7317,-95.2428,0215,-2.78,-15.76,16.0000,190.0000
1982-08-21 09:00:00 UTC,2445202.875000,28.7317,-95.2428,0215,-2.09,-14.85,15.0000,188.0000
1982-08-21 09:30:00 UTC,2445202.895833,28.7317,-95.2428,0215,-1.57,-14.92,15.0000,186.0000
1982-08-21 10:00:00 UTC,2445202.916667,28.7317,-95.2428,0215,-1.83,-14.89,15.0000,187.0000
1982-08-21 10:30:00 UTC,2445202.937500,28.7317,-95.2428,0215,-2.86,-14.72,15.0000,191.0000
1982-08-21 11:00:00 UTC,2445202.958333,28.7317,-95.2428,0215,-3.87,-15.52,16.0000,194.0000
1982-08-21 11:30:00 UTC,2445202.979167,28.7317,-95.2428,0215,-3.60,-15.59,16.0000,193.0000
1982-08-21 12:00:00 UTC,2445203.000000,28.7317,-95.2428,0215,-3.33,-15.65,16.0000,192.0000
1982-08-21 12:30:00 UTC,2445203.020833,28.7317,-95.2428,0215,-3.12,-14.67,15.0000,192.0000
1982-08-21 13:00:00 UTC,2445203.041667,28.7317,-95.2428,0215,-2.86,-14.72,15.0000,191.0000
1982-08-21 13:30:00 UTC,2445203.062500,28.7317,-95.2428,0215,-2.19,-13.83,14.0000,189.0000
1982-08-21 14:00:00 UTC,2445203.083333,28.7317,-95.2428,0215,-2.43,-13.79,14.0000,190.0000
1982-08-21 14:30:00 UTC,2445203.104167,28.7317,-95.2428,0215,-2.43,-13.79,14.0000,190.0000
1982-08-21 15:00:00 UTC,2445203.125000,28.7317,-95.2428,0215,-2.43,-13.79,14.0000,190.0000
1982-08-21 15:30:00 UTC,2445203.145833,28.7317,-95.2428,0215,-2.67,-13.74,14.0000,191.0000
1982-08-21 16:00:00 UTC,2445203.166667,28.7317,-95.2428,0215,-2.67,-13.74,14.0000,191.0000
1982-08-21 16:30:00 UTC,2445203.187500,28.7317,-95.2428,0215,-2.19,-13.83,14.0000,189.0000
1982-08-21 17:00:00 UTC,2445203.208333,28.7317,-95.2428,0215,-1.46,-13.92,14.0000,186.0000
1982-08-21 17:30:00 UTC,2445203.229167,28.7317,-95.2428,0215,-1.22,-13.95,14.0000,185.0000
1982-08-21 18:00:00 UTC,2445203.250000,28.7317,-95.2428,0215,-1.57,-14.92,15.0000,186.0000
1982-08-21 18:30:00 UTC,2445203.270833,28.7317,-95.2428,0215,-2.09,-14.85,15.0000,188.0000
1982-08-21 19:00:00 UTC,2445203.291667,28.7317,-95.2428,0215,-2.78,-15.76,16.0000,190.0000
1982-08-21 19:30:00 UTC,2445203.312500,28.7317,-95.2428,0215,-2.50,-15.80,16.0000,189.0000
1982-08-21 20:00:00 UTC,2445203.333333,28.7317,-95.2428,0215,-2.50,-15.80,16.0000,189.0000
1982-08-21 20:30:00 UTC,2445203.354167,28.7317,-95.2428,0215,-2.50,-15.80,16.0000,189.0000
1982-08-21 21:00:00 UTC,2445203.375000,28.7317,-95.2428,0215,-2.78,-15.76,16.0000,190.0000
1982-08-21 21:30:00 UTC,2445203.395833,28.7317,-95.2428,0215,-3.05,-15.71,16.0000,191.0000
1982-08-21 22:00:00 UTC,2445203.416667,28.7317,-95.2428,0215,-3.05,-15.71,16.0000,191.0000
1982-08-21 22:30:00 UTC,2445203.437500,28.7317,-95.2428,0215,-2.78,-15.76,16.0000,190.0000
1982-08-21 23:00:00 UTC,2445203.458333,28.7317,-95.2428,0215,-2.60,-14.77,15.0000,190.0000
1982-08-21 23:30:00 UTC,2445203.479167,28.7317,-95.2428,0215,-3.37,-14.62,15.0000,193.0000
1982-08-22 00:00:00 UTC,2445203.500000,28.7317,-95.2428,0215,-3.62,-13.52,14.0000,195.0000
1982-08-22 00:30:00 UTC,2445203.520833,28.7317,-95.2428,0215,-3.14,-12.61,13.0000,194.0000
1982-08-22 01:00:00 UTC,2445203.541667,28.7317,-95.2428,0215,-2.70,-12.72,13.0000,192.0000
1982-08-22 01:30:00 UTC,2445203.562500,28.7317,-95.2428,0215,-3.36,-12.56,13.0000,195.0000
1982-08-22 02:00:00 UTC,2445203.583333,28.7317,-95.2428,0215,-3.80,-12.43,13.0000,197.0000
1982-08-22 02:30:00 UTC,2445203.604167,28.7317,-95.2428,0215,-3.36,-12.56,13.0000,195.0000
1982-08-22 03:00:00 UTC,2445203.625000,28.7317,-95.2428,0215,-2.70,-12.72,13.0000,192.0000
1982-08-22 03:30:00 UTC,2445203.645833,28.7317,-95.2428,0215,-2.26,-12.80,13.0000,190.0000
1982-08-22 04:00:00 UTC,2445203.666667,28.7317,-95.2428,0215,-2.19,-13.83,14.0000,189.0000
1982-08-22 04:30:00 UTC,2445203.687500,28.7317,-95.2428,0215,-1.95,-13.86,14.0000,188.0000
1982-08-22 05:00:00 UTC,2445203.708333,28.7317,-95.2428,0215,-1.81,-12.87,13.0000,188.0000
1982-08-22 05:30:00 UTC,2445203.729167,28.7317,-95.2428,0215,-1.58,-12.90,13.0000,187.0000
1982-08-22 06:00:00 UTC,2445203.750000,28.7317,-95.2428,0215,-1.58,-12.90,13.0000,187.0000
1982-08-22 06:30:00 UTC,2445203.770833,28.7317,-95.2428,0215,-1.58,-12.90,13.0000,187.0000
1982-08-22 07:00:00 UTC,2445203.791667,28.7317,-95.2428,0215,-1.46,-13.92,14.0000,186.0000
1982-08-22 07:30:00 UTC,2445203.812500,28.7317,-95.2428,0215,-1.71,-13.90,14.0000,187.0000
1982-08-22 08:00:00 UTC,2445203.833333,28.7317,-95.2428,0215,-2.86,-14.72,15.0000,191.0000
1982-08-22 08:30:00 UTC,2445203.854167,28.7317,-95.2428,0215,-3.88,-14.49,15.0000,195.0000
1982-08-22 09:00:00 UTC,2445203.875000,28.7317,-95.2428,0215,-4.39,-14.34,15.0000,197.0000
1982-08-22 09:30:00 UTC,2445203.895833,28.7317,-95.2428,0215,-4.88,-14.18,15.0000,199.0000
1982-08-22 10:00:00 UTC,2445203.916667,28.7317,-95.2428,0215,-5.02,-13.07,14.0000,201.0000
1982-08-22 10:30:00 UTC,2445203.937500,28.7317,-95.2428,0215,-5.62,-13.91,15.0000,202.0000
1982-08-22 11:00:00 UTC,2445203.958333,28.7317,-95.2428,0215,-5.62,-13.91,15.0000,202.0000
1982-08-22 11:30:00 UTC,2445203.979167,28.7317,-95.2428,0215,-5.47,-15.04,16.0000,200.0000
1982-08-22 12:00:00 UTC,2445204.000000,28.7317,-95.2428,0215,-4.41,-15.38,16.0000,196.0000
1982-08-22 12:30:00 UTC,2445204.020833,28.7317,-95.2428,0215,-3.82,-16.56,17.0000,193.0000
1982-08-22 13:00:00 UTC,2445204.041667,28.7317,-95.2428,0215,-4.11,-16.50,17.0000,194.0000
1982-08-22 13:30:00 UTC,2445204.062500,28.7317,-95.2428,0215,-3.87,-15.52,16.0000,194.0000
1982-08-22 14:00:00 UTC,2445204.083333,28.7317,-95.2428,0215,-3.12,-14.67,15.0000,192.0000
1982-08-22 14:30:00 UTC,2445204.104167,28.7317,-95.2428,0215,-2.86,-14.72,15.0000,191.0000
1982-08-22 15:00:00 UTC,2445204.125000,28.7317,-95.2428,0215,-2.19,-13.83,14.0000,189.0000
1982-08-22 15:30:00 UTC,2445204.145833,28.7317,-95.2428,0215,-2.67,-13.74,14.0000,191.0000
1982-08-22 16:00:00 UTC,2445204.166667,28.7317,-95.2428,0215,-3.12,-14.67,15.0000,192.0000
1982-08-22 16:30:00 UTC,2445204.187500,28.7317,-95.2428,0215,-2.60,-14.77,15.0000,190.0000
1982-08-22 17:00:00 UTC,2445204.208333,28.7317,-95.2428,0215,-2.09,-14.85,15.0000,188.0000
1982-08-22 17:30:00 UTC,2445204.229167,28.7317,-95.2428,0215,-2.09,-14.85,15.0000,188.0000
1982-08-22 18:00:00 UTC,2445204.250000,28.7317,-95.2428,0215,-2.50,-15.80,16.0000,189.0000
1982-08-22 18:30:00 UTC,2445204.270833,28.7317,-95.2428,0215,-2.78,-15.76,16.0000,190.0000
1982-08-22 19:00:00 UTC,2445204.291667,28.7317,-95.2428,0215,-2.60,-14.77,15.0000,190.0000
1982-08-22 19:30:00 UTC,2445204.312500,28.7317,-95.2428,0215,-2.35,-14.82,15.0000,189.0000
1982-08-22 20:00:00 UTC,2445204.333333,28.7317,-95.2428,0215,-2.60,-14.77,15.0000,190.0000
1982-08-22 20:30:00 UTC,2445204.354167,28.7317,-95.2428,0215,-2.86,-14.72,15.0000,191.0000
1982-08-22 21:00:00 UTC,2445204.375000,28.7317,-95.2428,0215,-2.60,-14.77,15.0000,190.0000
1982-08-22 21:30:00 UTC,2445204.395833,28.7317,-95.2428,0215,-2.86,-14.72,15.0000,191.0000
1982-08-22 22:00:00 UTC,2445204.416667,28.7317,-95.2428,0215,-2.91,-13.69,14.0000,192.0000
1982-08-22 22:30:00 UTC,2445204.437500,28.7317,-95.2428,0215,-2.86,-14.72,15.0000,191.0000
1982-08-22 23:00:00 UTC,2445204.458333,28.7317,-95.2428,0215,-3.60,-15.59,16.0000,193.0000
1982-08-22 23:30:00 UTC,2445204.479167,28.7317,-95.2428,0215,-4.40,-16.42,17.0000,195.0000
1982-08-23 00:00:00 UTC,2445204.500000,28.7317,-95.2428,0215,-4.40,-16.42,17.0000,195.0000
1982-08-23 00:30:00 UTC,2445204.520833,28.7317,-95.2428,0215,-3.82,-16.56,17.0000,193.0000
1982-08-23 01:00:00 UTC,2445204.541667,28.7317,-95.2428,0215,-3.60,-15.59,16.0000,193.0000
1982-08-23 01:30:00 UTC,2445204.562500,28.7317,-95.2428,0215,-3.37,-14.62,15.0000,193.0000
1982-08-23 02:00:00 UTC,2445204.583333,28.7317,-95.2428,0215,-3.12,-14.67,15.0000,192.0000
1982-08-23 02:30:00 UTC,2445204.604167,28.7317,-95.2428,0215,-2.35,-14.82,15.0000,189.0000
1982-08-23 03:00:00 UTC,2445204.625000,28.7317,-95.2428,0215,-1.95,-13.86,14.0000,188.0000
1982-08-23 03:30:00 UTC,2445204.645833,28.7317,-95.2428,0215,-2.35,-14.82,15.0000,189.0000
1982-08-23 04:00:00 UTC,2445204.666667,28.7317,-95.2428,0215,-2.19,-13.83,14.0000,189.0000
1982-08-23 04:30:00 UTC,2445204.687500,28.7317,-95.2428,0215,-2.19,-13.83,14.0000,189.0000
1982-08-23 05:00:00 UTC,2445204.708333,28.7317,-95.2428,0215,-1.95,-13.86,14.0000,188.0000
1982-08-23 05:30:00 UTC,2445204.729167,28.7317,-95.2428,0215,-1.46,-13.92,14.0000,186.0000
1982-08-23 06:00:00 UTC,2445204.750000,28.7317,-95.2428,0215,-1.46,-13.92,14.0000,186.0000
1982-08-23 06:30:00 UTC,2445204.770833,28.7317,-95.2428,0215,-1.58,-12.90,13.0000,187.0000
1982-08-23 07:00:00 UTC,2445204.791667,28.7317,-95.2428,0215,-1.05,-11.95,12.0000,185.0000
1982-08-23 07:30:00 UTC,2445204.812500,28.7317,-95.2428,0215,-0.52,-9.99,10.0000,183.0000
1982-08-23 08:00:00 UTC,2445204.833333,28.7317,-95.2428,0215,-0.31,-8.99,9.0000,182.0000
1982-08-23 08:30:00 UTC,2445204.854167,28.7317,-95.2428,0215,-0.28,-8.00,8.0000,182.0000
1982-08-23 09:00:00 UTC,2445204.875000,28.7317,-95.2428,0215,-0.12,-7.00,7.0000,181.0000
1982-08-23 09:30:00 UTC,2445204.895833,28.7317,-95.2428,0215,0.21,-6.00,6.0000,178.0000
1982-08-23 10:00:00 UTC,2445204.916667,28.7317,-95.2428,0215,0.35,-4.99,5.0000,176.0000
1982-08-23 10:30:00 UTC,2445204.937500,28.7317,-95.2428,0215,0.21,-3.99,4.0000,177.0000
1982-08-23 11:00:00 UTC,2445204.958333,28.7317,-95.2428,0215,0.00,-5.00,5.0000,180.0000
1982-08-23 11:30:00 UTC,2445204.979167,28.7317,-95.2428,0215,-0.17,-5.00,5.0000,182.0000
1982-08-23 12:00:00 UTC,2445205.000000,28.7317,-95.2428,0215,-0.70,-4.95,5.0000,188.0000
1982-08-23 12:30:00 UTC,2445205.020833,28.7317,-95.2428,0215,-1.21,-4.85,5.0000,194.0000
1982-08-23 13:00:00 UTC,2445205.041667,28.7317,-95.2428,0215,-1.04,-4.89,5.0000,192.0000
1982-08-23 13:30:00 UTC,2445205.062500,28.7317,-95.2428,0215,-0.84,-5.94,6.0000,188.0000
1982-08-23 14:00:00 UTC,2445205.083333,28.7317,-95.2428,0215,-1.25,-5.87,6.0000,192.0000
1982-08-23 14:30:00 UTC,2445205.104167,28.7317,-95.2428,0215,-1.85,-5.71,6.0000,198.0000
1982-08-23 15:00:00 UTC,2445205.125000,28.7317,-95.2428,0215,-1.95,-5.67,6.0000,199.0000
1982-08-23 15:30:00 UTC,2445205.145833,28.7317,-95.2428,0215,-1.85,-5.71,6.0000,198.0000
1982-08-23 16:00:00 UTC,2445205.166667,28.7317,-95.2428,0215,-1.63,-4.73,5.0000,199.0000
1982-08-23 16:30:00 UTC,2445205.187500,28.7317,-95.2428,0215,-1.63,-4.73,5.0000,199.0000
1982-08-23 17:00:00 UTC,2445205.208333,28.7317,-95.2428,0215,-1.37,-3.76,4.0000,200.0000
1982-08-23 17:30:00 UTC,2445205.229167,28.7317,-95.2428,0215,-1.08,-2.80,3.0000,201.0000
1982-08-23 18:00:00 UTC,2445205.250000,28.7317,-95.2428,0215,-0.50,-0.87,1.0000,210.0000
1982-08-23 18:30:00 UTC,2445205.270833,28.7317,-95.2428,0215,-0.05,1.00,1.0000,357.0000
1982-08-23 19:00:00 UTC,2445205.291667,28.7317,-95.2428,0215,0.10,2.00,2.0000,3.0000
1982-08-23 19:30:00 UTC,2445205.312500,28.7317,-95.2428,0215,0.37,2.98,3.0000,7.0000
1982-08-23 20:00:00 UTC,2445205.333333,28.7317,-95.2428,0215,0.95,4.91,5.0000,11.0000
1982-08-23 20:30:00 UTC,2445205.354167,28.7317,-95.2428,0215,1.35,5.85,6.0000,13.0000
1982-08-23 21:00:00 UTC,2445205.375000,28.7317,-95.2428,0215,1.94,7.76,8.0000,14.0000
1982-08-23 21:30:00 UTC,2445205.395833,28.7317,-95.2428,0215,2.33,8.69,9.0000,15.0000
1982-08-23 22:00:00 UTC,2445205.416667,28.7317,-95.2428,0215,2.33,8.69,9.0000,15.0000
1982-08-23 22:30:00 UTC,2445205.437500,28.7317,-95.2428,0215,2.92,9.56,10.0000,17.0000
1982-08-23 23:00:00 UTC,2445205.458333,28.7317,-95.2428,0215,3.76,10.34,11.0000,20.0000
1982-08-23 23:30:00 UTC,2445205.479167,28.7317,-95.2428,0215,3.94,10.27,11.0000,21.0000
1982-08-24 00:00:00 UTC,2445205.500000,28.7317,-95.2428,0215,4.50,11.13,12.0000,22.0000
1982-08-24 00:30:00 UTC,2445205.520833,28.7317,-95.2428,0215,4.69,11.05,12.0000,23.0000
1982-08-24 01:00:00 UTC,2445205.541667,28.7317,-95.2428,0215,5.29,11.88,13.0000,24.0000
1982-08-24 01:30:00 UTC,2445205.562500,28.7317,-95.2428,0215,5.29,11.88,13.0000,24.0000
1982-08-24 02:00:00 UTC,2445205.583333,28.7317,-95.2428,0215,5.07,10.88,12.0000,25.0000
1982-08-24 02:30:00 UTC,2445205.604167,28.7317,-95.2428,0215,3.91,9.21,10.0000,23.0000
1982-08-24 03:00:00 UTC,2445205.625000,28.7317,-95.2428,0215,2.87,7.47,8.0000,21.0000
1982-08-24 03:30:00 UTC,2445205.645833,28.7317,-95.2428,0215,2.78,8.56,9.0000,18.0000
1982-08-24 04:00:00 UTC,2445205.666667,28.7317,-95.2428,0215,2.21,7.69,8.0000,16.0000
1982-08-24 04:30:00 UTC,2445205.687500,28.7317,-95.2428,0215,1.81,6.76,7.0000,15.0000
1982-08-24 05:00:00 UTC,2445205.708333,28.7317,-95.2428,0215,1.38,4.81,5.0000,16.0000
1982-08-24 05:30:00 UTC,2445205.729167,28.7317,-95.2428,0215,1.63,4.73,5.0000,19.0000
1982-08-24 06:00:00 UTC,2445205.750000,28.7317,-95.2428,0215,1.95,4.60,5.0000,23.0000
1982-08-24 06:30:00 UTC,2445205.770833,28.7317,-95.2428,0215,2.19,4.49,5.0000,26.0000
1982-08-24 07:00:00 UTC,2445205.791667,28.7317,-95.2428,0215,2.42,4.37,5.0000,29.0000
1982-08-24 07:30:00 UTC,2445205.812500,28.7317,-95.2428,0215,2.19,4.49,5.0000,26.0000
1982-08-24 08:00:00 UTC,2445205.833333,28.7317,-95.2428,0215,2.25,5.56,6.0000,22.0000
1982-08-24 08:30:00 UTC,2445205.854167,28.7317,-95.2428,0215,1.85,5.71,6.0000,18.0000
1982-08-24 09:00:00 UTC,2445205.875000,28.7317,-95.2428,0215,1.69,6.79,7.0000,14.0000
1982-08-24 09:30:00 UTC,2445205.895833,28.7317,-95.2428,0215,2.33,8.69,9.0000,15.0000
1982-08-24 10:00:00 UTC,2445205.916667,28.7317,-95.2428,0215,3.76,10.34,11.0000,20.0000
1982-08-24 10:30:00 UTC,2445205.937500,28.7317,-95.2428,0215,5.26,10.79,12.0000,26.0000
1982-08-24 11:00:00 UTC,2445205.958333,28.7317,-95.2428,0215,6.50,11.26,13.0000,30.0000
1982-08-24 11:30:00 UTC,2445205.979167,28.7317,-95.2428,0215,6.71,9.95,12.0000,34.0000
1982-08-24 12:00:00 UTC,2445206.000000,28.7317,-95.2428,0215,6.62,8.78,11.0000,37.0000
1982-08-24 12:30:00 UTC,2445206.020833,28.7317,-95.2428,0215,6.15,9.12,11.0000,34.0000
1982-08-24 13:00:00 UTC,2445206.041667,28.7317,-95.2428,0215,4.54,8.91,10.0000,27.0000
1982-08-24 13:30:00 UTC,2445206.062500,28.7317,-95.2428,0215,3.80,8.16,9.0000,25.0000
1982-08-24 14:00:00 UTC,2445206.083333,28.7317,-95.2428,0215,4.12,6.86,8.0000,31.0000
1982-08-24 14:30:00 UTC,2445206.104167,28.7317,-95.2428,0215,3.21,3.83,5.0000,40.0000
1982-08-24 15:00:00 UTC,2445206.125000,28.7317,-95.2428,0215,2.73,2.93,4.0000,43.0000
1982-08-24 15:30:00 UTC,2445206.145833,28.7317,-95.2428,0215,2.40,1.81,3.0000,53.0000
1982-08-24 16:00:00 UTC,2445206.166667,28.7317,-95.2428,0215,1.84,0.78,2.0000,67.0000
1982-08-24 16:30:00 UTC,2445206.187500,28.7317,-95.2428,0215,0.98,0.21,1.0000,78.0000
1982-08-24 17:00:00 UTC,2445206.208333,28.7317,-95.2428,0215,0.00,-0.00,0.0000,163.0000
1982-08-24 17:30:00 UTC,2445206.229167,28.7317,-95.2428,0215,-0.84,-0.54,1.0000,237.0000
1982-08-24 18:00:00 UTC,2445206.250000,28.7317,-95.2428,0215,-0.86,0.52,1.0000,301.0000
1982-08-24 18:30:00 UTC,2445206.270833,28.7317,-95.2428,0215,-1.32,2.70,3.0000,334.0000
1982-08-24 19:00:00 UTC,2445206.291667,28.7317,-95.2428,0215,-0.69,3.94,4.0000,350.0000
1982-08-24 19:30:00 UTC,2445206.312500,28.7317,-95.2428,0215,-0.17,5.00,5.0000,358.0000
1982-08-24 20:00:00 UTC,2445206.333333,28.7317,-95.2428,0215,0.84,5.94,6.0000,8.0000
1982-08-24 20:30:00 UTC,2445206.354167,28.7317,-95.2428,0215,1.85,5.71,6.0000,18.0000
1982-08-24 21:00:00 UTC,2445206.375000,28.7317,-95.2428,0215,2.05,5.64,6.0000,20.0000
1982-08-24 21:30:00 UTC,2445206.395833,28.7317,-95.2428,0215,2.07,7.73,8.0000,15.0000
1982-08-24 22:00:00 UTC,2445206.416667,28.7317,-95.2428,0215,2.42,9.70,10.0000,14.0000
1982-08-24 22:30:00 UTC,2445206.437500,28.7317,-95.2428,0215,3.40,10.46,11.0000,18.0000
1982-08-24 23:00:00 UTC,2445206.458333,28.7317,-95.2428,0215,4.69,11.05,12.0000,23.0000
1982-08-24 23:30:00 UTC,2445206.479167,28.7317,-95.2428,0215,5.45,10.69,12.0000,27.0000
1982-08-25 00:00:00 UTC,2445206.500000,28.7317,-95.2428,0215,5.45,10.69,12.0000,27.0000
1982-08-25 00:30:00 UTC,2445206.520833,28.7317,-95.2428,0215,5.90,11.58,13.0000,27.0000
1982-08-25 01:00:00 UTC,2445206.541667,28.7317,-95.2428,0215,5.45,10.69,12.0000,27.0000
1982-08-25 01:30:00 UTC,2445206.562500,28.7317,-95.2428,0215,5.82,10.50,12.0000,29.0000
1982-08-25 02:00:00 UTC,2445206.583333,28.7317,-95.2428,0215,7.27,10.78,13.0000,34.0000
1982-08-25 02:30:00 UTC,2445206.604167,28.7317,-95.2428,0215,10.04,11.15,15.0000,42.0000
1982-08-25 03:00:00 UTC,2445206.625000,28.7317,-95.2428,0215,12.63,11.38,17.0000,48.0000
1982-08-25 03:30:00 UTC,2445206.645833,28.7317,-95.2428,0215,13.99,11.33,18.0000,51.0000
1982-08-25 04:00:00 UTC,2445206.666667,28.7317,-95.2428,0215,13.79,11.57,18.0000,50.0000
1982-08-25 04:30:00 UTC,2445206.687500,28.7317,-95.2428,0215,12.43,11.59,17.0000,47.0000
1982-08-25 05:00:00 UTC,2445206.708333,28.7317,-95.2428,0215,12.23,11.81,17.0000,46.0000
1982-08-25 05:30:00 UTC,2445206.729167,28.7317,-95.2428,0215,12.83,11.15,17.0000,49.0000
1982-08-25 06:00:00 UTC,2445206.750000,28.7317,-95.2428,0215,12.83,11.15,17.0000,49.0000
1982-08-25 06:30:00 UTC,2445206.770833,28.7317,-95.2428,0215,11.70,10.91,16.0000,47.0000
1982-08-25 07:00:00 UTC,2445206.791667,28.7317,-95.2428,0215,11.51,11.11,16.0000,46.0000
1982-08-25 07:30:00 UTC,2445206.812500,28.7317,-95.2428,0215,11.51,11.11,16.0000,46.0000
1982-08-25 08:00:00 UTC,2445206.833333,28.7317,-95.2428,0215,12.23,11.81,17.0000,46.0000
1982-08-25 08:30:00 UTC,2445206.854167,28.7317,-95.2428,0215,12.63,11.38,17.0000,48.0000
1982-08-25 09:00:00 UTC,2445206.875000,28.7317,-95.2428,0215,12.63,11.38,17.0000,48.0000
1982-08-25 09:30:00 UTC,2445206.895833,28.7317,-95.2428,0215,13.16,12.28,18.0000,47.0000
1982-08-25 10:00:00 UTC,2445206.916667,28.7317,-95.2428,0215,13.90,12.96,19.0000,47.0000
1982-08-25 10:30:00 UTC,2445206.937500,28.7317,-95.2428,0215,13.90,12.96,19.0000,47.0000
1982-08-25 11:00:00 UTC,2445206.958333,28.7317,-95.2428,0215,12.95,12.50,18.0000,46.0000
1982-08-25 11:30:00 UTC,2445206.979167,28.7317,-95.2428,0215,12.63,11.38,17.0000,48.0000
1982-08-25 12:00:00 UTC,2445207.000000,28.7317,-95.2428,0215,12.83,11.15,17.0000,49.0000
1982-08-25 12:30:00 UTC,2445207.020833,28.7317,-95.2428,0215,12.43,11.59,17.0000,47.0000
1982-08-25 13:00:00 UTC,2445207.041667,28.7317,-95.2428,0215,11.31,11.31,16.0000,45.0000
1982-08-25 13:30:00 UTC,2445207.062500,28.7317,-95.2428,0215,10.61,10.61,15.0000,45.0000
1982-08-25 14:00:00 UTC,2445207.083333,28.7317,-95.2428,0215,11.15,10.04,15.0000,48.0000
1982-08-25 14:30:00 UTC,2445207.104167,28.7317,-95.2428,0215,10.52,7.64,13.0000,54.0000
1982-08-25 15:00:00 UTC,2445207.125000,28.7317,-95.2428,0215,7.79,4.50,9.0000,60.0000
1982-08-25 15:30:00 UTC,2445207.145833,28.7317,-95.2428,0215,4.60,1.95,5.0000,67.0000
1982-08-25 16:00:00 UTC,2445207.166667,28.7317,-95.2428,0215,1.93,0.52,2.0000,75.0000
1982-08-25 16:30:00 UTC,2445207.187500,28.7317,-95.2428,0215,0.97,0.22,1.0000,77.0000
1982-08-25 17:00:00 UTC,2445207.208333,28.7317,-95.2428,0215,1.00,-0.02,1.0000,91.0000
1982-08-25 17:30:00 UTC,2445207.229167,28.7317,-95.2428,0215,0.91,-0.42,1.0000,115.0000
1982-08-25 18:00:00 UTC,2445207.250000,28.7317,-95.2428,0215,0.00,0.00,0.0000,55.0000
1982-08-25 18:30:00 UTC,2445207.270833,28.7317,-95.2428,0215,-0.05,1.00,1.0000,357.0000
1982-08-25 19:00:00 UTC,2445207.291667,28.7317,-95.2428,0215,-0.36,0.93,1.0000,339.0000
1982-08-25 19:30:00 UTC,2445207.312500,28.7317,-95.2428,0215,-0.93,2.85,3.0000,342.0000
1982-08-25 20:00:00 UTC,2445207.333333,28.7317,-95.2428,0215,-0.63,3.95,4.0000,351.0000
1982-08-25 20:30:00 UTC,2445207.354167,28.7317,-95.2428,0215,-0.35,3.98,4.0000,355.0000
1982-08-25 21:00:00 UTC,2445207.375000,28.7317,-95.2428,0215,-0.35,3.98,4.0000,355.0000
1982-08-25 21:30:00 UTC,2445207.395833,28.7317,-95.2428,0215,-0.26,4.99,5.0000,357.0000
1982-08-25 22:00:00 UTC,2445207.416667,28.7317,-95.2428,0215,0.10,6.00,6.0000,1.0000
1982-08-25 22:30:00 UTC,2445207.437500,28.7317,-95.2428,0215,0.61,6.97,7.0000,5.0000
1982-08-25 23:00:00 UTC,2445207.458333,28.7317,-95.2428,0215,1.72,8.83,9.0000,11.0000
1982-08-25 23:30:00 UTC,2445207.479167,28.7317,-95.2428,0215,3.58,10.40,11.0000,19.0000
1982-08-26 00:00:00 UTC,2445207.500000,28.7317,-95.2428,0215,5.07,10.88,12.0000,25.0000
1982-08-26 00:30:00 UTC,2445207.520833,28.7317,-95.2428,0215,5.45,10.69,12.0000,27.0000
1982-08-26 01:00:00 UTC,2445207.541667,28.7317,-95.2428,0215,5.26,10.79,12.0000,26.0000
1982-08-26 01:30:00 UTC,2445207.562500,28.7317,-95.2428,0215,5.45,10.69,12.0000,27.0000
1982-08-26 02:00:00 UTC,2445207.583333,28.7317,-95.2428,0215,4.82,9.89,11.0000,26.0000
1982-08-26 02:30:00 UTC,2445207.604167,28.7317,-95.2428,0215,4.23,9.06,10.0000,25.0000
1982-08-26 03:00:00 UTC,2445207.625000,28.7317,-95.2428,0215,3.66,8.22,9.0000,24.0000
1982-08-26 03:30:00 UTC,2445207.645833,28.7317,-95.2428,0215,3.80,8.16,9.0000,25.0000
1982-08-26 04:00:00 UTC,2445207.666667,28.7317,-95.2428,0215,3.38,7.25,8.0000,25.0000
1982-08-26 04:30:00 UTC,2445207.687500,28.7317,-95.2428,0215,2.85,6.39,7.0000,24.0000
1982-08-26 05:00:00 UTC,2445207.708333,28.7317,-95.2428,0215,2.74,6.44,7.0000,23.0000
1982-08-26 05:30:00 UTC,2445207.729167,28.7317,-95.2428,0215,2.85,6.39,7.0000,24.0000
1982-08-26 06:00:00 UTC,2445207.750000,28.7317,-95.2428,0215,2.54,5.44,6.0000,25.0000
1982-08-26 06:30:00 UTC,2445207.770833,28.7317,-95.2428,0215,1.95,4.60,5.0000,23.0000
1982-08-26 07:00:00 UTC,2445207.791667,28.7317,-95.2428,0215,1.10,3.85,4.0000,16.0000